Weather History for KPBF - March, 2014

Change the Weather History Date:

Tuesday, March 11, 2014

  Actual Average Record
Temperature  
Mean Temperature 64 °F 53 °F  
Max Temperature 76 °F 63 °F 88 °F (1911)
Min Temperature 51 °F 43 °F 24 °F (1948)
Degree Days  
Heating Degree Days 1 12  
Month to date heating degree days 228 153  
Since 1 July heating degree days 2997 2541  
Cooling Degree Days 0 0  
Month to date cooling degree days 0 0  
Year to date cooling degree days 0 3  
Growing Degree Days 12 (Base 50)    
Moisture  
Dew Point 54 °F    
Average Humidity 73    
Maximum Humidity 93    
Minimum Humidity 53    
Precipitation  
Precipitation 0.00 in 0.17 in 2.90 in (1897)
Month to date precipitation 2.26 1.97  
Year to date precipitation 7.69 9.79  
Snow  
Snow 0.00 in 0.00 in 0.80 in (1932)
Month to date snowfall T 0.0  
Since 1 July snowfall 3.7 3.1  
Snow Depth 0.00 in    
Sea Level Pressure  
Sea Level Pressure 29.71 in    
Wind  
Wind Speed 8 mph (SSW)    
Max Wind Speed 18 mph    
Max Gust Speed 45 mph    
Visibility 10 miles    
Events      
T = Trace of Precipitation, MM = Missing Value Source: NWS Daily Summary

Daily Weather History Graph

Daily Weather History Graph

Search for Another Location

Airport or City:

Trip Planner

Search our weather history database for the weather conditions in past years. The results will help you decide how hot, cold, wet, or windy it might be!

Date:

Astronomy

Mar. 11, 2014 Rise Set
Actual Time 7:23 AM CDT 7:12 PM CDT
Civil Twilight 6:58 AM CDT 7:37 PM CDT
Nautical Twilight 6:29 AM CDT 8:06 PM CDT
Astronomical Twilight 6:00 AM CDT 8:35 PM CDT
Moon 2:58 PM CDT (3/11) 4:07 AM CDT (3/11)
Length of Visible Light 12h 38m
Length of Day
11h 48m
Waxing Gibbous, 78% of the Moon is Illuminated
Mar 11
Waxing Gibbous
Mar 16
Full
Mar 23
Last Quarter
Mar 30
New
Apr 7
First Quarter

Hourly Weather History & Observations

Time (CDT) Temp. Dew Point Humidity Pressure Visibility Wind Dir Wind Speed Gust Speed Precip Events Conditions
12:53 AM 54.0 °F 48.0 °F 80% 29.87 in 10.0 mi Calm Calm - N/A   Clear
1:53 AM 52.0 °F 46.9 °F 83% 29.86 in 10.0 mi Calm Calm - N/A   Clear
2:53 AM 52.0 °F 48.0 °F 86% 29.84 in 10.0 mi Calm Calm - N/A   Clear
3:53 AM 54.0 °F 50.0 °F 86% 29.82 in 10.0 mi SSW 5.8 mph - N/A   Clear
4:53 AM 54.0 °F 50.0 °F 86% 29.80 in 10.0 mi SSW 4.6 mph - N/A   Clear
5:53 AM 54.0 °F 51.1 °F 90% 29.80 in 10.0 mi SW 3.5 mph - N/A   Clear
6:53 AM 54.0 °F 51.1 °F 90% 29.80 in 10.0 mi SW 4.6 mph - N/A   Clear
7:53 AM 54.0 °F 52.0 °F 93% 29.78 in 10.0 mi SW 4.6 mph - N/A   Clear
8:53 AM 57.9 °F 53.1 °F 84% 29.79 in 10.0 mi SSW 8.1 mph - N/A   Clear
9:53 AM 63.0 °F 55.0 °F 75% 29.80 in 10.0 mi SSW 8.1 mph 44.9 mph N/A   Clear
10:53 AM 68.0 °F 55.0 °F 63% 29.77 in 10.0 mi SSW 10.4 mph - N/A   Clear
11:53 AM 71.1 °F 54.0 °F 55% 29.73 in 10.0 mi SSW 11.5 mph - N/A   Clear
12:53 PM 72.0 °F 54.0 °F 53% 29.71 in 10.0 mi SSW 12.7 mph - N/A   Mostly Cloudy
1:53 PM 73.0 °F 55.0 °F 53% 29.67 in 10.0 mi Variable 6.9 mph - N/A   Mostly Cloudy
2:53 PM 73.0 °F 55.0 °F 53% 29.64 in 10.0 mi South 11.5 mph - N/A   Overcast
3:53 PM 73.9 °F 55.9 °F 53% 29.61 in 10.0 mi South 10.4 mph - N/A   Mostly Cloudy
4:53 PM 73.0 °F 55.9 °F 55% 29.59 in 10.0 mi South 13.8 mph - N/A   Mostly Cloudy
5:53 PM 73.9 °F 55.9 °F 53% 29.58 in 10.0 mi South 11.5 mph - N/A   Scattered Clouds
6:53 PM 70.0 °F 57.0 °F 63% 29.58 in 10.0 mi South 16.1 mph - N/A   Clear
7:53 PM 64.9 °F 57.0 °F 75% 29.60 in 10.0 mi South 8.1 mph - N/A   Clear
8:53 PM 63.0 °F 57.9 °F 84% 29.62 in 10.0 mi South 10.4 mph - N/A   Clear
9:53 PM 62.1 °F 57.9 °F 86% 29.63 in 10.0 mi SSW 8.1 mph - N/A   Clear
10:53 PM 60.1 °F 57.0 °F 90% 29.63 in 10.0 mi South 5.8 mph - N/A   Partly Cloudy
11:53 PM 60.1 °F 57.0 °F 90% 29.62 in 10.0 mi South 9.2 mph - N/A   Clear